Showing default

IRIDIUM 140, 43252

Orbit data source: Space-Track

IRIDIUM 140, 43252 is a payload satellite owned by Iridium (US) in LEO that was launched on Fri, 30 Mar 2018 UTC via an FALCON 9 launch vehicle from the Air Force Western Test Range (AFWTR). Payload-class satellites include a variety of spacecraft equipped with specific instruments for various scientific and technological missions. These include communications satellites like Starlink; space stations such as the ISS; scientific satellites like the Hubble; Earth observation satellites from companies like Planet Labs, Umbra, and HawkEye 360; GPS; miniature CubeSats for education and research; and military/defense satellites.

Loading next visibility...
Identifier
43252, 2018-030D
Orbit
LEO
Country
Flag of USUS
Related business
Manufacturer
OATK SSG Gilbert
Mission
Operational Commercial Communications
Bus & Motor
ELITEBUS, Unknown motor
Mass
860 kg wet, 700 kg dry
Launch date (UTC)
2018-03-30 (7 years ago)
Launch vehicle
FALCON 9
Launch site
Air Force Western Test Range (AFWTR)
Object type
Payload
Rocket body
Debris
Shape & HBR
Trap Box + 2 Pan, 4.7 m
Radar Cross Section
14.423 m², Large (>1 m²)

Expand to show TLE details & history
Last TLE update: 1 day ago

TLE from 1 day ago
0 IRIDIUM 140
1 43252U 18030D   25260.82892731  .00000172  00000-0  54477-4 0  9994
2 43252  86.3960  44.2714 0002306  91.7807 268.3653 14.34218937391159
Epoch: 2025-09-17T19:53Z
TLE epoch observation values (Epoch: 2025-09-17T19:53:39.319Z)
Latitude
-0.00002°
Longitude
108.8583°
Altitude
780.762 km
Speed
7.463 km/s
True Right ascension
02h 57m 05s
True Declination
0° 00' 00"
Sunlit
Object was in full shadow at epoch
Visualization orbit readout
Latitude
Unknown
Longitude
Unknown
Altitude
Unknown
Speed
Unknown
Apparent Right ascension
Unknown
Apparent Declination
Unknown
Sunlit
N/A
Visualization observer readout
Local Sidereal Time
20:03:07
Azimuth
Unknown
Elevation
Unknown
Doppler factor
Unknown
Orbital elements
Apogee altitude
776.277 km
Perigee altitude
772.978 km
Semi-major axis
7,152.765 km
Eccentricity
0.00023
Inclination
86.396°
RAAN
44.2714°
Arg. of periapsis
91.7807°
True anomaly
268.33889°
Mean anomaly
268.3653°
Eccentric anomaly
268.35209°
Mean motion
3.58783 °/min
Orbital period
100.34 mins
BSTAR
0.000054477
Loading maneuver chart data...
Computing Atmospheric mass density...
Loading historical data...
Loading historical data...
Loading historical data...
Loading historical data...
Loading historical data...
Loading historical data...
Loading historical data...

Documentation

Showing up to 5 results
|